KOREASAT 7

Last updated on Sun Jun 21 2026 00:03:07 GMT+0000 (Coordinated Universal Time)

1 42691U 17023A 26171.47730345 -.00000366 00000+0 00000+0 0 9999 2 42691 0.0190 341.4047 0000717 69.7195 145.2904 1.00273530 33405
UTC large
Height (km)
Speed (km/s)
/
Latitude / Longitude
Inclination (degrees)
Orbital Period (minutes)
Azimuth
Elevation
Range (km)
Doppler Factor

Next 0 passes for location: London (51.5072 / 0.1276)

No passes found over London.
KOREASAT 7